Weather History for Moline, IL

Change the Weather History Date:

Wednesday, February 12, 2014

  Actual Average Record
Temperature  
Mean Temperature 13 °F 26 °F  
Max Temperature 25 °F 35 °F 67 °F (1938)
Min Temperature 0 °F 17 °F -19 °F (1899)
Degree Days  
Heating Degree Days 52 39  
Month to date heating degree days 712 487  
Since 1 July heating degree days 4979 4221  
Cooling Degree Days 0 0  
Month to date cooling degree days 0 0  
Year to date cooling degree days 0 0  
Moisture  
Dew Point 5 °F    
Average Humidity 58    
Maximum Humidity 69    
Minimum Humidity 46    
Precipitation  
Precipitation 0.00 in 0.06 in 1.12 in (1881)
Month to date precipitation 0.79 0.57  
Year to date precipitation 1.96 2.06  
Snow  
Snow 0.00 in 0.20 in - ()
Month to date snowfall 13.3 3.3  
Since 1 July snowfall 45.8 23.2  
Snow Depth 9.00 in    
Sea Level Pressure  
Sea Level Pressure 30.17 in    
Wind  
Wind Speed 5 mph (South)    
Max Wind Speed 10 mph    
Max Gust Speed 13 mph    
Visibility 10 miles    
Events      
T = Trace of Precipitation, MM = Missing Value Source: NWS Daily Summary

Daily Weather History Graph

Daily Weather History Graph

Search for Another Location

Airport:

Trip Planner

Search our weather history database for the weather conditions in past years. The results will help you decide how hot, cold, wet, or windy it might be!

Date:

Astronomy

Feb. 12, 2014 Rise Set
Actual Time 7:00 AM CST 5:32 PM CST
Civil Twilight 6:32 AM CST 6:00 PM CST
Nautical Twilight 5:59 AM CST 6:33 PM CST
Astronomical Twilight 5:27 AM CST 7:05 PM CST
Moon 3:45 PM CST (2/12) 5:18 AM CST (2/12)
Length of Visible Light 11h 28m
Length of Day
10h 31m
Waxing Gibbous, 95% of the Moon is Illuminated
Feb 12
Waxing Gibbous
Feb 14
Full
Feb 22
Last Quarter
Mar 1
New
Mar 8
First Quarter

Hourly Weather History & Observations

Time (CST) Temp. Windchill Dew Point Humidity Pressure Visibility Wind Dir Wind Speed Gust Speed Precip Events Conditions
12:52 AM 1.0 °F -10.3 °F -8.0 °F 66% 30.35 in 10.0 mi SE 5.8 mph - N/A   Clear
1:52 AM 3.0 °F - -6.0 °F 66% 30.34 in 10.0 mi Calm Calm - N/A   Mostly Cloudy
2:52 AM 6.1 °F - -2.9 °F 67% 30.31 in 10.0 mi Calm Calm - N/A   Overcast
3:52 AM 7.0 °F - -2.9 °F 64% 30.30 in 10.0 mi Calm Calm - N/A   Overcast
4:52 AM 9.0 °F -0.9 °F -0.9 °F 64% 30.28 in 10.0 mi SSE 5.8 mph - N/A   Overcast
5:52 AM 10.0 °F 1.8 °F -0.0 °F 64% 30.26 in 10.0 mi SSE 4.6 mph - N/A   Overcast
6:52 AM 10.9 °F 2.9 °F -0.0 °F 61% 30.26 in 10.0 mi SSW 4.6 mph - N/A   Overcast
7:52 AM 10.9 °F 2.9 °F 1.0 °F 64% 30.25 in 10.0 mi SE 4.6 mph - N/A   Overcast
8:52 AM 12.9 °F 2.6 °F 1.9 °F 62% 30.23 in 10.0 mi South 6.9 mph - N/A   Overcast
9:52 AM 15.1 °F 6.4 °F 3.0 °F 59% 30.22 in 10.0 mi SSE 5.8 mph - N/A   Mostly Cloudy
10:52 AM 17.1 °F 7.6 °F 3.9 °F 56% 30.22 in 10.0 mi SSW 6.9 mph - N/A   Overcast
11:52 AM 19.9 °F 11.1 °F 3.9 °F 50% 30.19 in 10.0 mi SSW 6.9 mph - N/A   Clear
12:52 PM 21.9 °F 14.5 °F 7.0 °F 53% 30.14 in 10.0 mi South 5.8 mph - N/A   Mostly Cloudy
1:52 PM 25.0 °F 18.1 °F 7.0 °F 46% 30.11 in 10.0 mi WSW 5.8 mph - N/A   Overcast
2:52 PM 24.1 °F 18.2 °F 8.1 °F 51% 30.09 in 10.0 mi WSW 4.6 mph - N/A   Overcast
3:52 PM 24.1 °F 19.7 °F 8.1 °F 51% 30.09 in 10.0 mi WSW 3.5 mph - N/A   Overcast
4:52 PM 23.0 °F 17.0 °F 8.1 °F 53% 30.09 in 10.0 mi SW 4.6 mph - N/A   Overcast
5:52 PM 23.0 °F - 10.9 °F 60% 30.12 in 10.0 mi Calm Calm - N/A   Overcast
6:52 PM 23.0 °F 18.4 °F 10.0 °F 58% 30.08 in 10.0 mi SSE 3.5 mph - N/A   Overcast
7:52 PM 23.0 °F 13.9 °F 10.9 °F 60% 30.05 in 10.0 mi SSE 8.1 mph - N/A   Overcast
8:52 PM 23.0 °F 18.4 °F 10.9 °F 60% 30.04 in 10.0 mi SE 3.5 mph - N/A   Overcast
9:52 PM 23.0 °F 15.8 °F 12.0 °F 63% 30.04 in 10.0 mi South 5.8 mph - N/A   Overcast
10:52 PM 23.0 °F 17.0 °F 10.9 °F 60% 30.04 in 10.0 mi SSW 4.6 mph - N/A   Overcast
11:52 PM 21.9 °F 14.5 °F 9.0 °F 58% 29.99 in 10.0 mi SSE 5.8 mph - N/A   Overcast